This is the latest recevied weather packets stored in our database for station/object K4AMF. If no packets are shown the sender has not sent any weather packets the latest 10 day(s).
| Time | Temp. | Humidity | Pressure | Rain* | Wind** | Luminosity | Snow |
|---|---|---|---|---|---|---|---|
| 1777635004 | 20.56° C | 83% | 1012.3 hPa | 0 mm | - | 32 W/m² | - |
| 1777634701 | 20.56° C | 83% | 1012.3 hPa | 0 mm | - | 30 W/m² | - |
| 1777634399 | 20.56° C | 83% | 1012.2 hPa | 0 mm | - | 24 W/m² | - |
| 1777634095 | 20.56° C | 83% | 1011.8 hPa | 0 mm | - | 15 W/m² | - |
| 1777633791 | 20.56° C | 83% | 1012 hPa | 0 mm | - | 8 W/m² | - |
| 1777633490 | 20.56° C | 82% | 1012 hPa | 0 mm | - | 4 W/m² | - |
| 1777633187 | 20.56° C | 82% | 1011.8 hPa | 0 mm | - | 2 W/m² | - |
| 1777632884 | 20.56° C | 82% | 1012.1 hPa | 0 mm | - | 0 W/m² | - |
| 1777632580 | 20.56° C | 82% | 1012 hPa | 0 mm | - | 0 W/m² | - |
| 1777632277 | 20.56° C | 82% | 1012.2 hPa | 0 mm | - | 0 W/m² | - |
| 1777631974 | 20.56° C | 82% | 1012.3 hPa | 0 mm | - | 0 W/m² | - |
| 1777631672 | 21.11° C | 82% | 1012 hPa | 0 mm | - | 0 W/m² | - |
| 1777631369 | 20.56° C | 82% | 1012.1 hPa | 0 mm | - | 0 W/m² | - |
| 1777631061 | 20.56° C | 82% | 1012 hPa | 0 mm | - | 0 W/m² | - |
| 1777630757 | 20.56° C | 83% | 1011.9 hPa | 0 mm | - | 0 W/m² | - |
| 1777630454 | 20.56° C | 83% | 1011.6 hPa | 0 mm | - | 0 W/m² | - |
| 1777630151 | 21.11° C | 82% | 1011.5 hPa | 0 mm | - | 0 W/m² | - |
| 1777629849 | 21.11° C | 82% | 1011.4 hPa | 0 mm | - | 0 W/m² | - |
| 1777629545 | 21.11° C | 82% | 1011.6 hPa | 0 mm | - | 0 W/m² | - |
| 1777629242 | 21.11° C | 82% | 1011.6 hPa | 0 mm | - | 0 W/m² | - |
| 1777628938 | 21.11° C | 82% | 1011.3 hPa | 0 mm | - | 0 W/m² | - |
| 1777628634 | 21.11° C | 82% | 1011.4 hPa | 0 mm | - | 0 W/m² | - |
| 1777628330 | 21.11° C | 82% | 1011.5 hPa | 0 mm | - | 0 W/m² | - |
| 1777628026 | 21.11° C | 82% | 1011.4 hPa | 0 mm | - | 0 W/m² | - |
| 1777627726 | 21.11° C | 82% | 1011.4 hPa | 0 mm | - | 0 W/m² | - |
* Rain latest hour (hover to see other rain measurements)
** Current wind speed in m/s (hover to see current wind gust speed)